Weather History for KGNA - March, 2014

Change the Weather History Date:

Friday, March 14, 2014

  Actual Average (KCKC) Record (KCKC)
Temperature  
Mean Temperature 32 °F -  
Max Temperature 41 °F 28 °F 64 °F (2012)
Min Temperature 21 °F 11 °F 0 °F (2013)
Degree Days  
Heating Degree Days 33    
Moisture  
Dew Point 24 °F    
Average Humidity 77    
Maximum Humidity 92    
Minimum Humidity 58    
Precipitation  
Precipitation 0.03 in - - ()
Sea Level Pressure  
Sea Level Pressure 29.55 in    
Wind  
Wind Speed 3 mph (West)    
Max Wind Speed 12 mph    
Max Gust Speed 21 mph    
Averages and records for this station are not official NWS values.
T = Trace of Precipitation, MM = Missing Value Source: NWS Daily Summary

Daily Weather History Graph

Daily Weather History Graph

Search for Another Location

Airport or City:

Trip Planner

Search our weather history database for the weather conditions in past years. The results will help you decide how hot, cold, wet, or windy it might be!

Date:

Astronomy

Mar. 14, 2014 Rise Set
Actual Time 7:16 AM CDT 7:05 PM CDT
Civil Twilight 6:45 AM CDT 7:36 PM CDT
Nautical Twilight 6:09 AM CDT 8:12 PM CDT
Astronomical Twilight 5:33 AM CDT 8:49 PM CDT
Moon 5:22 PM CDT (3/14) 6:02 AM CDT (3/14)
Length of Visible Light 12h 50m
Length of Day
11h 49m
Waxing Gibbous, 96% of the Moon is Illuminated
Mar 14
Waxing Gibbous
Mar 16
Full
Mar 23
Last Quarter
Mar 30
New
Apr 7
First Quarter

Hourly Weather History & Observations

Time (CDT) Temp. Windchill Dew Point Humidity Pressure Visibility Wind Dir Wind Speed Gust Speed Precip Events Conditions
12:56 AM 28.9 °F - 25.0 °F 85% 29.40 in - Calm Calm - N/A   Unknown
1:56 AM 30.0 °F 26.5 °F 26.1 °F 85% 29.39 in - WSW 3.5 mph - N/A   Unknown
2:56 AM 30.0 °F 26.5 °F 27.0 °F 88% 29.40 in - West 3.5 mph - N/A   Unknown
3:56 AM 30.0 °F 26.5 °F 27.0 °F 88% 29.38 in - West 3.5 mph - N/A   Unknown
4:56 AM 28.0 °F 24.2 °F 25.0 °F 88% 29.39 in - West 3.5 mph - N/A   Unknown
5:56 AM 28.0 °F - 25.0 °F 88% 29.40 in - Calm Calm - N/A   Unknown
6:56 AM 28.9 °F - 27.0 °F 92% 29.42 in - Calm Calm - N/A   Unknown
7:56 AM 30.9 °F - 28.0 °F 89% 29.42 in - Calm Calm - N/A   Unknown
8:56 AM 36.0 °F 33.3 °F 30.9 °F 82% 29.42 in - WSW 3.5 mph - N/A   Unknown
9:56 AM 35.1 °F 31.0 °F 30.9 °F 85% 29.44 in - WSW 4.6 mph - N/A   Unknown
10:56 AM 36.0 °F 32.1 °F 33.1 °F 89% 29.44 in - WSW 4.6 mph - 0.02 in   Unknown
11:56 AM 37.0 °F 34.5 °F 33.1 °F 86% 29.45 in - WSW 3.5 mph - 0.01 in   Unknown
12:56 PM 41.0 °F 39.0 °F 32.0 °F 70% 29.46 in - Variable 3.5 mph - N/A   Unknown
1:56 PM 37.9 °F 33.5 °F 32.0 °F 79% 29.49 in - Variable 5.8 mph - N/A   Unknown
2:56 PM 37.9 °F 33.5 °F 30.0 °F 73% 29.51 in - Variable 5.8 mph - N/A   Unknown
3:56 PM 35.1 °F 27.4 °F 25.0 °F 67% 29.57 in - NNW 10.4 mph 20.7 mph N/A   Unknown
4:56 PM 32.0 °F 27.5 °F 21.9 °F 66% 29.63 in - Variable 4.6 mph - N/A   Unknown
5:56 PM 30.9 °F 23.5 °F 19.9 °F 64% 29.68 in - NNW 8.1 mph - N/A   Unknown
6:56 PM 28.9 °F 21.1 °F 16.0 °F 58% 29.72 in - NNW 8.1 mph - N/A   Unknown
7:56 PM 27.0 °F 16.7 °F 18.0 °F 69% 29.78 in - NNW 11.5 mph 20.7 mph N/A   Unknown
8:56 PM 26.1 °F 21.9 °F 14.0 °F 60% 29.83 in - Variable 3.5 mph - N/A   Unknown
9:56 PM 25.0 °F - 15.1 °F 66% 29.86 in - Calm Calm - N/A   Unknown
10:56 PM 23.0 °F 17.0 °F 12.9 °F 65% 29.90 in - Variable 4.6 mph - N/A   Unknown
11:56 PM 21.0 °F - 10.0 °F 63% 29.93 in - Calm Calm - N/A   Unknown